Location: Catstown
(52.4386°N, 7.2633°W)
Time: 22:49:25
(UTC+00:00)

ERS-1 Rocket - Pass Details

Date: 18 September 2020
Orbit: 754 x 757 km, 98.5° (Epoch: 21 October)

Event Time Altitude Azimuth Distance (km) Brightness Sun altitude
Exits shadow 20:57:23 33° 73° (ENE) 1,264 3.8 -21.1°
Maximum altitude 20:57:49 33° 62° (ENE) 1,251 3.8 -21.2°
Drops below altitude 10° 21:02:19 10° 359° (N) 2,297 5.9 -21.8°
Sets 21:04:48 0° 351° (N) 3,228 6.9 -22.1°
